Location: B�rgermoos
(47.6500°N, 9.0667°E)
Time: 06:30:07
(UTC+00:00)

Cosmos 1844 Rocket - Pass Details

Date: 18 September 2020
Orbit: 823 x 846 km, 71.0° (Epoch: 27 October)

Event Time Altitude Azimuth Distance (km) Brightness Sun altitude
Rises 19:38:22 0° 202° (SSW) 3,345 5.8 -21.7°
Reaches altitude 10° 19:40:47 10° 202° (SSW) 2,417 5.0 -22.0°
Maximum altitude 19:46:19 82° 115° (ESE) 840 2.5 -22.8°
Drops below altitude 10° 19:51:55 10° 29° (NNE) 2,444 5.1 -23.7°
Sets 19:54:22 0° 29° (NNE) 3,385 5.9 -24.0°
